Wind_Speed
19 19 19 20 21 22 23 23 21 20 18 15 14 13 12 12 13 13 13 13 12 12 12 12 12 12 12 13 12 11 10 11 12 11 11 11 11 11 12 13 16 19 21
22 23 24 25 25 25 25 25 24 22 20 17 16 16 16 16 16 16 17 16 16 16 15 15 15 15 14 14 13 13 12 13 12 12 12 13 13 13 13 14 14 15 19
25 27 28 27 27 26 27 27 26 23 20 18 18 18 19 19 19 19 19 19 19 19 18 18 17 16 16 15 14 13 14 14 14 14 14 14 14 14 14 15 15 15 16
27 28 28 28 28 27 27 27 24 22 20 20 20 21 21 21 21 21 22 22 22 22 21 20 19 18 17 16 14 14 14 15 16 16 15 15 15 14 14 14 15 16 16
28 28 29 29 28 26 25 24 21 22 22 23 24 23 23 23 23 23 23 23 23 23 22 22 20 19 18 17 15 15 15 16 17 17 16 15 15 14 13 15 15 16 16
29 29 30 28 27 26 24 23 23 25 26 27 27 26 25 24 24 24 24 23 23 23 23 22 21 20 19 18 18 17 16 16 17 17 16 14 13 13 13 13 15 15 15
31 30 29 29 27 26 26 26 27 27 28 27 27 27 27 25 24 24 24 24 24 23 23 23 23 22 22 21 20 19 17 18 17 16 14 13 13 12 12 12 13 14 14
31 30 27 28 27 27 28 29 29 29 29 29 29 28 28 27 26 26 26 25 25 25 24 24 25 25 24 24 23 22 19 18 17 16 14 13 13 12 12 12 12 13 14
31 32 31 29 29 29 29 30 30 31 31 30 31 30 30 29 28 27 27 26 26 26 26 26 25 25 25 25 24 23 22 20 20 19 18 16 15 13 13 13 13 14 14
33 33 33 31 29 29 30 30 31 31 30 29 29 29 29 28 28 28 28 28 28 28 28 27 26 25 25 25 24 24 23 22 22 22 21 19 19 16 15 15 14 15 16
32 32 33 32 30 29 28 27 28 27 26 25 25 25 26 26 27 28 29 28 30 30 29 29 28 27 26 26 25 25 24 25 24 24 24 22 23 21 20 19 18 18 18
28 27 29 29 28 27 25 24 23 24 25 26 25 25 26 27 27 28 28 29 29 29 30 30 30 29 28 28 27 27 27 28 28 28 27 27 27 26 25 25 24 23 22
26 25 26 26 25 24 24 24 23 24 24 26 26 27 28 29 30 31 31 32 32 32 32 33 33 33 33 33 32 32 32 32 33 34 33 32 32 31 31 30 29 29 28
27 27 28 28 27 26 26 26 25 25 25 26 27 27 28 29 31 31 32 33 35 36 38 38 38 39 39 39 40 40 40 39 39 40 39 38 38 36 36 35 34 34 34
30 30 31 30 29 29 29 29 30 30 30 31 32 32 32 33 33 34 34 35 35 36 37 38 40 42 43 44 45 45 45 44 44 44 43 42 43 42 41 40 39 39 39
32 32 32 33 33 33 34 34 35 35 36 36 37 38 38 39 39 39 39 38 38 38 39 39 39 40 41 42 44 44 44 44 45 44 44 44 45 45 45 45 44 44 43
32 33 34 36 37 38 39 39 40 40 41 42 43 45 46 46 46 46 45 44 44 43 43 43 43 43 44 44 45 46 46 45 46 46 45 44 45 46 46 46 47 47 46
34 36 38 40 42 44 46 47 48 48 48 49 50 51 52 52 52 52 51 50 50 50 49 49 49 49 49 49 49 49 50 49 49 49 49 47 47 47 47 48 48 48 48
40 43 45 47 48 50 51 53 53 54 54 54 54 55 56 57 57 57 56 56 56 55 55 54 54 54 54 53 53 54 54 53 53 52 51 50 49 49 49 50 50 50 49
45 47 48 50 51 52 54 56 57 57 58 58 59 59 60 60 61 60 60 60 59 59 59 59 59 59 58 57 57 57 57 57 56 54 52 51 51 51 51 52 52 52 51
48 49 50 50 51 53 55 56 57 58 59 60 61 62 63 63 62 62 62 61 61 61 61 61 61 61 61 61 61 61 61 60 58 56 54 53 53 53 53 52 52 52 52
49 52 53 52 52 53 54 55 56 57 58 59 59 60 61 62 62 62 62 62 61 60 60 61 62 62 63 63 62 62 62 62 61 59 56 54 52 53 54 53 53 53 53
53 55 57 59 60 60 61 62 63 63 63 64 65 65 64 64 63 63 63 62 61 61 61 61 62 63 63 63 63 62 63 63 62 61 60 57 51 49 51 52 53 53 53
60 62 65 67 68 70 71 72 73 73 72 71 71 72 71 70 69 69 68 66 64 63 63 63 63 63 63 63 62 62 63 63 62 61 61 61 59 57 56 55 56 56 57
70 72 74 75 76 78 79 80 80 79 78 77 76 76 76 75 73 72 70 68 67 65 64 63 63 63 63 63 62 62 62 62 62 62 61 61 62 62 62 61 60 60 59
79 81 82 83 84 84 84 84 83 81 78 77 75 73 74 76 75 71 69 68 67 65 63 62 62 62 62 63 63 61 60 60 60 60 61 62 62 62 62 61 60 59 58
Wind_Direction
260 269 276 281 285 290 292 292 289 286 283 282 278 271 268 265 261 259 260 263 267 271 276 281 284 285 289 297 301 300 293 284 281 280 279 275 269 264 262 258 250 244 242
271 276 279 280 283 287 290 289 286 282 280 280 279 276 273 270 266 262 261 263 265 268 271 276 278 279 282 288 292 291 287 283 278 277 278 277 273 269 266 265 261 255 249
274 277 279 280 281 284 286 285 282 277 275 278 282 282 280 275 270 267 265 265 267 270 271 272 274 277 280 284 285 282 279 276 275 275 275 272 271 270 270 268 268 268 263
274 276 278 279 280 281 281 280 276 270 270 276 280 282 281 278 273 270 268 268 269 271 272 272 273 275 279 282 282 280 277 272 270 270 270 270 268 269 272 272 271 270 268
273 274 274 275 277 278 278 274 267 266 270 275 279 279 278 278 276 273 270 269 270 271 271 271 272 273 276 279 279 280 277 270 267 266 264 266 270 272 273 272 270 268 265
270 271 272 273 276 275 272 268 270 273 277 279 279 278 275 274 273 272 270 268 267 267 267 268 269 271 274 277 276 276 272 267 265 264 260 259 269 271 269 272 271 268 265
268 269 273 275 274 273 271 273 277 278 280 280 279 278 275 273 271 270 269 269 268 267 267 268 269 271 272 272 270 268 266 264 262 263 260 256 263 270 268 269 272 269 267
274 274 273 274 273 275 276 277 278 279 279 279 278 278 278 276 273 271 269 269 269 269 269 270 270 271 271 269 266 262 260 258 257 257 259 262 266 268 271 271 274 270 266
277 276 274 273 274 274 273 275 276 277 277 278 278 278 277 275 273 271 270 269 270 270 269 269 269 271 271 268 265 261 256 252 252 254 257 261 264 266 269 273 275 275 270
277 277 276 274 272 273 276 277 277 277 279 279 278 278 276 275 274 272 271 270 270 269 269 269 267 267 267 266 263 260 256 252 250 253 257 260 260 261 264 267 272 274 274
278 278 277 277 278 278 278 279 279 280 281 282 281 279 277 276 275 274 273 272 270 270 269 269 267 266 265 264 262 260 258 256 253 253 256 260 260 262 264 266 269 272 273
282 281 279 280 282 283 282 281 279 280 282 282 281 280 278 276 275 274 274 273 272 271 269 267 266 266 265 263 261 260 261 261 261 258 257 259 259 260 262 265 268 271 271
288 287 284 282 281 280 279 278 277 277 277 277 277 277 275 275 274 273 272 273 274 274 272 270 268 267 266 265 264 263 264 266 267 265 263 262 260 259 260 262 264 267 268
286 285 282 279 277 276 274 273 272 271 272 273 274 274 274 274 274 273 271 270 270 270 270 270 269 268 268 267 266 265 266 267 267 267 266 265 263 262 261 262 262 263 264
284 283 280 277 274 272 270 269 269 269 269 270 272 272 272 272 272 272 271 269 268 267 267 268 268 268 267 267 267 267 268 268 267 266 266 266 265 264 263 263 263 263 263
280 280 279 278 277 275 272 270 269 269 270 271 272 274 274 274 273 272 271 270 269 267 266 265 265 267 267 266 266 266 266 266 266 266 266 265 266 265 264 263 262 262 262
280 280 279 279 278 277 275 274 273 272 271 271 272 274 275 274 274 274 273 271 270 269 267 265 265 265 266 266 267 267 267 266 266 267 266 266 265 264 263 262 261 261 260
281 282 283 283 282 281 280 279 278 276 275 274 273 273 273 272 272 272 271 270 270 270 268 266 266 265 265 265 265 266 266 266 266 266 267 267 266 264 263 262 260 259 258
285 286 287 286 284 282 280 279 277 277 276 275 273 272 271 271 270 270 269 269 268 268 267 265 265 265 265 264 263 264 264 264 264 264 265 266 265 264 262 261 260 259 257
288 288 287 285 283 281 279 278 276 276 275 274 273 272 271 270 270 269 268 268 267 267 266 265 265 264 263 263 262 262 263 263 263 263 263 263 263 262 261 260 259 259 257
290 290 289 287 284 281 278 277 276 276 275 275 274 274 272 271 270 269 269 268 267 267 267 267 267 266 264 263 262 261 261 261 262 262 261 260 260 261 260 259 259 259 259
293 292 292 291 289 285 282 279 278 277 277 277 277 276 275 273 271 270 269 268 268 268 268 268 267 266 265 264 263 261 261 260 260 260 258 257 257 258 258 258 259 259 260
294 293 294 294 293 291 288 286 284 283 282 281 280 279 277 276 274 273 272 270 269 268 267 266 266 265 265 264 262 261 260 260 260 259 257 255 253 254 256 257 257 258 258
297 296 296 296 295 294 293 291 289 287 285 283 282 281 279 278 275 273 272 271 269 268 266 264 263 263 263 263 262 261 261 260 259 257 256 254 252 251 252 254 257 258 258
300 298 297 296 295 294 293 291 290 289 287 285 282 280 278 276 273 272 271 269 267 265 263 261 261 260 261 261 261 260 259 258 257 256 254 252 252 252 253 256 258 259 259
301 299 298 296 295 294 293 292 290 288 286 283 280 276 274 273 271 269 266 264 263 261 259 257 256 255 256 257 258 258 257 256 257 256 254 251 250 252 253 255 256 256 257
Height
5858 5858 5858 5858 5858 5858 5857 5857 5856 5856 5855 5855 5854 5854 5854 5854 5854 5854 5854 5854 5853 5853 5853 5853 5853 5853 5853 5853 5853 5853 5853 5853 5853 5854 5854 5855 5855 5856 5857 5859 5860 5861 5863
5855 5855 5855 5855 5855 5854 5854 5854 5853 5853 5852 5852 5852 5851 5851 5851 5851 5851 5851 5851 5851 5851 5851 5851 5851 5851 5850 5850 5851 5851 5851 5851 5851 5851 5852 5852 5853 5853 5855 5857 5858 5858 5860
5852 5852 5852 5852 5851 5850 5850 5849 5849 5849 5849 5849 5848 5848 5848 5848 5848 5848 5848 5848 5848 5848 5848 5848 5848 5848 5847 5848 5848 5848 5848 5848 5848 5849 5849 5849 5850 5851 5852 5854 5855 5856 5857
5849 5849 5848 5848 5847 5846 5845 5845 5845 5845 5845 5844 5844 5844 5844 5844 5844 5844 5844 5844 5844 5844 5845 5845 5845 5845 5844 5845 5845 5845 5845 5846 5846 5846 5847 5847 5847 5848 5849 5850 5851 5852 5854
5844 5845 5844 5843 5842 5841 5840 5840 5840 5840 5840 5840 5840 5840 5840 5840 5840 5840 5840 5840 5840 5841 5841 5841 5841 5841 5841 5841 5841 5841 5842 5842 5843 5844 5844 5844 5845 5846 5847 5847 5848 5849 5850
5840 5840 5838 5838 5837 5836 5836 5836 5836 5836 5836 5835 5835 5835 5835 5835 5835 5835 5836 5836 5836 5837 5837 5837 5837 5837 5837 5837 5838 5838 5839 5839 5840 5841 5842 5843 5843 5843 5844 5845 5845 5846 5847
5834 5835 5833 5833 5832 5831 5831 5831 5831 5831 5831 5830 5830 5830 5830 5830 5830 5831 5831 5832 5832 5832 5833 5833 5833 5833 5833 5833 5833 5834 5835 5836 5838 5839 5840 5840 5840 5841 5841 5842 5843 5843 5845
5829 5829 5829 5827 5827 5827 5826 5826 5826 5825 5825 5825 5824 5824 5825 5825 5825 5825 5826 5827 5827 5828 5828 5828 5828 5828 5828 5828 5829 5830 5831 5832 5834 5835 5837 5838 5838 5839 5839 5840 5840 5841 5842
5824 5823 5823 5822 5821 5821 5821 5820 5820 5819 5819 5819 5818 5818 5819 5819 5819 5819 5820 5821 5821 5822 5822 5822 5822 5823 5823 5823 5824 5825 5827 5828 5830 5831 5832 5834 5835 5836 5836 5837 5838 5839 5839
5818 5817 5816 5816 5817 5816 5815 5815 5814 5814 5814 5813 5813 5812 5812 5812 5813 5813 5813 5815 5815 5815 5815 5816 5816 5817 5817 5818 5819 5820 5822 5823 5825 5826 5828 5829 5830 5832 5833 5834 5835 5836 5836
5812 5811 5810 5809 5810 5810 5810 5810 5809 5808 5808 5807 5807 5806 5806 5806 5806 5807 5807 5808 5808 5808 5809 5810 5810 5811 5812 5813 5814 5815 5817 5818 5819 5820 5822 5824 5825 5827 5828 5829 5830 5831 5832
5805 5806 5804 5804 5803 5803 5803 5803 5803 5803 5802 5801 5801 5801 5801 5801 5801 5801 5802 5801 5801 5802 5802 5803 5804 5805 5806 5807 5808 5810 5811 5812 5813 5814 5816 5818 5819 5821 5822 5824 5825 5826 5827
5801 5800 5799 5798 5798 5797 5797 5796 5796 5796 5796 5795 5795 5795 5795 5794 5794 5795 5795 5795 5795 5796 5796 5797 5798 5799 5800 5801 5802 5803 5805 5806 5807 5808 5809 5811 5812 5814 5816 5818 5819 5820 5821
5796 5795 5793 5792 5791 5790 5790 5789 5788 5788 5788 5788 5787 5787 5787 5787 5786 5786 5787 5787 5788 5788 5789 5790 5790 5791 5792 5793 5794 5796 5797 5799 5799 5800 5801 5803 5804 5806 5808 5810 5812 5813 5814
5790 5789 5787 5785 5784 5783 5782 5781 5780 5780 5779 5779 5779 5778 5778 5778 5778 5778 5778 5778 5779 5779 5780 5780 5781 5781 5782 5783 5784 5785 5787 5789 5790 5791 5792 5794 5795 5797 5799 5801 5803 5805 5806
5783 5781 5779 5778 5777 5776 5774 5773 5772 5771 5770 5769 5769 5768 5768 5768 5768 5768 5768 5768 5769 5770 5770 5771 5771 5772 5772 5773 5773 5774 5776 5778 5778 5780 5782 5783 5784 5786 5788 5791 5793 5795 5798
5775 5773 5771 5769 5767 5766 5765 5764 5763 5761 5760 5759 5758 5758 5757 5757 5756 5756 5757 5757 5758 5759 5760 5760 5761 5761 5762 5762 5763 5764 5765 5766 5767 5769 5770 5772 5773 5775 5777 5779 5782 5785 5788
5767 5765 5763 5761 5758 5756 5755 5754 5752 5751 5750 5748 5747 5746 5745 5745 5744 5744 5744 5744 5745 5746 5746 5747 5748 5749 5750 5751 5751 5752 5753 5755 5756 5758 5758 5760 5762 5763 5765 5767 5770 5773 5776
5759 5756 5753 5751 5748 5745 5743 5741 5739 5737 5736 5734 5733 5732 5731 5731 5730 5730 5730 5730 5730 5731 5732 5733 5734 5735 5736 5737 5738 5739 5741 5742 5744 5745 5746 5748 5749 5751 5753 5755 5757 5761 5764
5749 5746 5742 5739 5735 5732 5730 5727 5725 5722 5721 5719 5718 5717 5716 5715 5714 5714 5715 5715 5715 5716 5716 5717 5718 5720 5721 5722 5723 5725 5727 5728 5730 5732 5734 5735 5736 5738 5740 5741 5743 5746 5750
5737 5733 5729 5725 5722 5718 5715 5712 5710 5708 5705 5704 5702 5700 5699 5698 5698 5697 5698 5698 5699 5700 5700 5701 5702 5704 5705 5707 5708 5710 5711 5713 5716 5719 5721 5722 5723 5724 5725 5728 5730 5733 5736
5723 5719 5714 5710 5706 5702 5699 5696 5694 5692 5689 5687 5685 5684 5682 5681 5680 5681 5680 5681 5681 5683 5684 5685 5686 5687 5689 5690 5692 5694 5696 5699 5701 5704 5706 5708 5710 5711 5712 5714 5717 5720 5723
5709 5704 5699 5694 5690 5686 5682 5679 5675 5673 5671 5669 5666 5665 5664 5663 5662 5662 5662 5663 5664 5666 5667 5668 5669 5670 5672 5673 5675 5677 5679 5682 5685 5688 5690 5693 5695 5697 5699 5701 5702 5705 5709
5692 5686 5681 5675 5670 5666 5661 5657 5653 5651 5649 5646 5643 5642 5642 5642 5641 5641 5642 5642 5644 5647 5649 5650 5651 5652 5654 5656 5657 5659 5662 5665 5668 5672 5674 5676 5679 5682 5684 5687 5688 5691 5694
5673 5667 5660 5654 5648 5643 5638 5633 5628 5624 5622 5620 5618 5616 5616 5617 5617 5618 5619 5620 5622 5625 5628 5630 5632 5634 5636 5638 5641 5643 5645 5647 5650 5654 5658 5660 5663 5665 5669 5672 5674 5676 5680
5651 5644 5637 5630 5624 5618 5612 5607 5601 5597 5595 5593 5592 5590 5589 5590 5592 5594 5596 5598 5600 5603 5607 5609 5612 5615 5617 5620 5623 5626 5628 5631 5633 5636 5640 5644 5647 5650 5653 5657 5659 5662 5665